Data No.,UTC Date,UTC Time,Latitude,Longitude,Course(deg),Temp(degC),Sal(psu)
8685,2010/3/18,21:08:00,00-00.0900N,144-51.9300E,338,29.712,34.3385
8686,2010/3/18,21:09:00,00-00.3000N,144-51.8500E,338,29.72,34.3384
8687,2010/3/18,21:10:00,00-00.5100N,144-51.7700E,339,29.713,34.337
8688,2010/3/18,21:11:00,00-00.7300N,144-51.6900E,339,29.72,34.3385
8689,2010/3/18,21:12:00,00-00.9400N,144-51.6100E,338,29.72,34.3375
8690,2010/3/18,21:13:00,00-01.1600N,144-51.5300E,338,29.71,34.3372
8691,2010/3/18,21:14:00,00-01.3700N,144-51.4400E,338,29.706,34.3386
8692,2010/3/18,21:15:00,00-01.5900N,144-51.3500E,337,29.719,34.3391
8693,2010/3/18,21:16:00,00-01.8000N,144-51.2700E,339,29.716,34.3372
8694,2010/3/18,21:17:00,00-02.0100N,144-51.1900E,339,29.717,34.3367
8695,2010/3/18,21:18:00,00-02.2200N,144-51.1200E,339,29.734,34.3377
8696,2010/3/18,21:19:00,00-02.4400N,144-51.0300E,338,29.729,34.336
8697,2010/3/18,21:20:00,00-02.6600N,144-50.9500E,338,29.723,34.3351
8698,2010/3/18,21:21:00,00-02.8600N,144-50.8700E,337,29.734,34.3361
8699,2010/3/18,21:22:00,00-03.0800N,144-50.7800E,338,29.727,34.336
8700,2010/3/18,21:23:00,00-03.2900N,144-50.6900E,338,29.716,34.3348
8701,2010/3/18,21:24:00,00-03.5200N,144-50.6000E,337,29.708,34.3359
8702,2010/3/18,21:25:00,00-03.7400N,144-50.5200E,338,29.711,34.3356
8703,2010/3/18,21:26:00,00-03.9500N,144-50.4300E,338,29.708,34.334
8704,2010/3/18,21:27:00,00-04.1700N,144-50.3500E,338,29.718,34.3307
8705,2010/3/18,21:28:00,00-04.3800N,144-50.2700E,338,29.719,34.3309
8706,2010/3/18,21:29:00,00-04.6000N,144-50.1800E,337,29.723,34.3298
8707,2010/3/18,21:30:00,00-04.8100N,144-50.1000E,338,29.724,34.3305
8708,2010/3/18,21:31:00,00-05.0200N,144-50.0100E,339,29.717,34.33
8709,2010/3/18,21:32:00,00-05.2400N,144-49.9400E,342,29.719,34.3309
8710,2010/3/18,21:33:00,00-05.4600N,144-49.8700E,340,29.722,34.3302
8711,2010/3/18,21:34:00,00-05.6700N,144-49.7900E,337,29.719,34.329
8712,2010/3/18,21:35:00,00-05.8700N,144-49.7000E,335,29.72,34.3286
8713,2010/3/18,21:36:00,00-06.0900N,144-49.6000E,336,29.725,34.3285
8714,2010/3/18,21:37:00,00-06.3000N,144-49.5200E,339,29.719,34.3278
8715,2010/3/18,21:38:00,00-06.5100N,144-49.4400E,340,29.72,34.3276
8716,2010/3/18,21:39:00,00-06.7300N,144-49.3700E,341,29.717,34.3267
8717,2010/3/18,21:40:00,00-06.9400N,144-49.2900E,340,29.716,34.3266
8718,2010/3/18,21:41:00,00-07.1500N,144-49.2200E,340,29.718,34.3252
8719,2010/3/18,21:42:00,00-07.3700N,144-49.1400E,339,29.722,34.3237
8720,2010/3/18,21:43:00,00-07.5800N,144-49.0600E,340,29.722,34.3228
8721,2010/3/18,21:44:00,00-07.8000N,144-48.9800E,340,29.72,34.3232
8722,2010/3/18,21:45:00,00-08.0100N,144-48.9100E,340,29.727,34.3226
8723,2010/3/18,21:46:00,00-08.2400N,144-48.8300E,340,29.725,34.3215
8724,2010/3/18,21:47:00,00-08.4500N,144-48.7500E,338,29.841,34.3218
8725,2010/3/18,21:48:00,00-08.6600N,144-48.6700E,338,29.851,34.3174
8726,2010/3/18,21:49:00,00-08.8700N,144-48.5900E,338,29.849,34.3144
8727,2010/3/18,21:50:00,00-09.0800N,144-48.5100E,339,29.83,34.3141
8728,2010/3/18,21:51:00,00-09.3000N,144-48.4300E,340,29.819,34.3132
8729,2010/3/18,21:52:00,00-09.5100N,144-48.3600E,339,29.811,34.3132
8730,2010/3/18,21:53:00,00-09.7200N,144-48.2800E,338,29.815,34.3136
8731,2010/3/18,21:54:00,00-09.9300N,144-48.2000E,338,29.82,34.3093
8732,2010/3/18,21:55:00,00-10.1400N,144-48.1200E,339,29.828,34.306
8733,2010/3/18,21:56:00,00-10.3500N,144-48.0400E,339,29.821,34.3049
8734,2010/3/18,21:57:00,00-10.5600N,144-47.9600E,339,29.811,34.3071
8735,2010/3/18,21:58:00,00-10.7800N,144-47.8800E,339,29.809,34.3079
8736,2010/3/18,21:59:00,00-10.9900N,144-47.8100E,339,29.804,34.3065
8737,2010/3/18,22:00:00,00-11.2000N,144-47.7300E,339,29.803,34.3071
8738,2010/3/18,22:01:00,00-11.4100N,144-47.6500E,339,29.809,34.3075
8739,2010/3/18,22:02:00,00-11.6200N,144-47.5700E,340,29.801,34.3065
8740,2010/3/18,22:03:00,00-11.8300N,144-47.4900E,339,29.797,34.3072
8741,2010/3/18,22:04:00,00-12.0500N,144-47.4200E,339,29.799,34.3079
8742,2010/3/18,22:05:00,00-12.2600N,144-47.3400E,339,29.813,34.3075
8743,2010/3/18,22:06:00,00-12.4700N,144-47.2600E,339,29.818,34.3058
8744,2010/3/18,22:07:00,00-12.6800N,144-47.1800E,339,29.815,34.3059
8745,2010/3/18,22:08:00,00-12.9100N,144-47.0900E,338,29.811,34.307
8746,2010/3/18,22:09:00,00-13.1200N,144-47.0100E,339,29.815,34.3073
8747,2010/3/18,22:10:00,00-13.3400N,144-46.9300E,340,29.817,34.3078
8748,2010/3/18,22:11:00,00-13.5500N,144-46.8600E,340,29.815,34.3088
8749,2010/3/18,22:12:00,00-13.7600N,144-46.7800E,338,29.815,34.3089
8750,2010/3/18,22:13:00,00-13.9800N,144-46.6900E,338,29.811,34.3089
8751,2010/3/18,22:14:00,00-14.1900N,144-46.6100E,339,29.806,34.3106
8752,2010/3/18,22:15:00,00-14.4100N,144-46.5300E,339,29.803,34.3098
8753,2010/3/18,22:16:00,00-14.6200N,144-46.4500E,338,29.806,34.3092
8754,2010/3/18,22:17:00,00-14.8400N,144-46.3700E,339,29.808,34.3089
8755,2010/3/18,22:18:00,00-15.0500N,144-46.2900E,339,29.815,34.307
8756,2010/3/18,22:19:00,00-15.2600N,144-46.2100E,340,29.819,34.3066
8757,2010/3/18,22:20:00,00-15.4700N,144-46.1300E,338,29.822,34.3071
8758,2010/3/18,22:21:00,00-15.6900N,144-46.0500E,338,29.819,34.3084
8759,2010/3/18,22:22:00,00-15.9000N,144-45.9600E,338,29.817,34.3087
8760,2010/3/18,22:23:00,00-16.1100N,144-45.8800E,338,29.819,34.3101
8761,2010/3/18,22:24:00,00-16.3200N,144-45.8000E,338,29.821,34.3102
8762,2010/3/18,22:25:00,00-16.5300N,144-45.7200E,339,29.815,34.3111
8763,2010/3/18,22:26:00,00-16.7500N,144-45.6400E,339,29.817,34.3124
8764,2010/3/18,22:27:00,00-16.9600N,144-45.5600E,338,29.82,34.3143
8765,2010/3/18,22:28:00,00-17.1700N,144-45.4800E,338,29.814,34.3149
8766,2010/3/18,22:29:00,00-17.4000N,144-45.3900E,338,29.822,34.3153
8767,2010/3/18,22:30:00,00-17.6100N,144-45.3000E,338,29.837,34.3163
8768,2010/3/18,22:31:00,00-17.8200N,144-45.2200E,337,29.833,34.3164
8769,2010/3/18,22:32:00,00-18.0300N,144-45.1300E,338,29.831,34.3179
8770,2010/3/18,22:33:00,00-18.2500N,144-45.0500E,338,29.831,34.3181
8771,2010/3/18,22:34:00,00-18.4600N,144-44.9700E,338,29.835,34.318
8772,2010/3/18,22:35:00,00-18.6700N,144-44.8900E,338,29.835,34.3184
8773,2010/3/18,22:36:00,00-18.8800N,144-44.8000E,338,29.827,34.3184
8774,2010/3/18,22:37:00,00-19.1000N,144-44.7200E,339,29.821,34.3168
8775,2010/3/18,22:38:00,00-19.3100N,144-44.6400E,338,29.819,34.3144
8776,2010/3/18,22:39:00,00-19.5200N,144-44.5500E,338,29.819,34.3152
8777,2010/3/18,22:40:00,00-19.7300N,144-44.4700E,339,29.815,34.3156
8778,2010/3/18,22:41:00,00-19.9400N,144-44.3900E,338,29.813,34.3149
8779,2010/3/18,22:42:00,00-20.1600N,144-44.3100E,338,29.81,34.3178
8780,2010/3/18,22:43:00,00-20.3700N,144-44.2300E,338,29.808,34.3195
8781,2010/3/18,22:44:00,00-20.5800N,144-44.1400E,338,29.801,34.3211
8782,2010/3/18,22:45:00,00-20.7900N,144-44.0600E,338,29.806,34.322
8783,2010/3/18,22:46:00,00-21.0000N,144-43.9800E,337,29.806,34.3222
8784,2010/3/18,22:47:00,00-21.2200N,144-43.9000E,339,29.807,34.3234
8785,2010/3/18,22:48:00,00-21.4200N,144-43.8200E,339,29.803,34.3226
8786,2010/3/18,22:49:00,00-21.6400N,144-43.7400E,339,29.805,34.3229
8787,2010/3/18,22:50:00,00-21.8500N,144-43.6600E,339,29.8,34.3238
8788,2010/3/18,22:51:00,00-22.0700N,144-43.5700E,338,29.799,34.3237
8789,2010/3/18,22:52:00,00-22.2900N,144-43.4900E,338,29.798,34.3225
8790,2010/3/18,22:53:00,00-22.5000N,144-43.4100E,339,29.802,34.3245
8791,2010/3/18,22:54:00,00-22.7100N,144-43.3300E,338,29.801,34.323
8792,2010/3/18,22:55:00,00-22.9200N,144-43.2500E,337,29.803,34.3242
8793,2010/3/18,22:56:00,00-23.1300N,144-43.1700E,338,29.805,34.3246
8794,2010/3/18,22:57:00,00-23.3500N,144-43.0900E,338,29.804,34.3235
8795,2010/3/18,22:58:00,00-23.5600N,144-43.0100E,338,29.802,34.3221
8796,2010/3/18,22:59:00,00-23.7700N,144-42.9300E,339,29.803,34.3237
8797,2010/3/18,23:00:00,00-23.9900N,144-42.8500E,339,29.801,34.3235
8798,2010/3/18,23:01:00,00-24.2000N,144-42.7700E,339,29.805,34.3223
8799,2010/3/18,23:02:00,00-24.4100N,144-42.6900E,338,29.803,34.3222
8800,2010/3/18,23:03:00,00-24.6300N,144-42.6100E,341,29.801,34.3214
8801,2010/3/18,23:04:00,00-24.8500N,144-42.5400E,342,29.797,34.3222
8802,2010/3/18,23:05:00,00-25.0600N,144-42.4700E,341,29.792,34.3226
8803,2010/3/18,23:06:00,00-25.2800N,144-42.4000E,341,29.792,34.3238
8804,2010/3/18,23:07:00,00-25.5000N,144-42.3300E,341,29.796,34.3246
8805,2010/3/18,23:08:00,00-25.7100N,144-42.2600E,341,29.795,34.3241
8806,2010/3/18,23:09:00,00-25.9200N,144-42.1900E,341,29.795,34.3241
8807,2010/3/18,23:10:00,00-26.1400N,144-42.1200E,342,29.803,34.3245
8808,2010/3/18,23:11:00,00-26.3600N,144-42.0500E,341,29.811,34.3232
8809,2010/3/18,23:12:00,00-26.5700N,144-41.9700E,341,29.814,34.3225
8810,2010/3/18,23:13:00,00-26.8000N,144-41.9000E,341,29.823,34.324
8811,2010/3/18,23:14:00,00-27.0100N,144-41.8300E,341,29.815,34.3185
8812,2010/3/18,23:15:00,00-27.2300N,144-41.7600E,341,29.809,34.3169
8813,2010/3/18,23:16:00,00-27.4400N,144-41.6900E,341,29.812,34.3182
8814,2010/3/18,23:17:00,00-27.6600N,144-41.6100E,341,29.806,34.3193
8815,2010/3/18,23:18:00,00-27.8700N,144-41.5400E,340,29.809,34.3196
8816,2010/3/18,23:19:00,00-28.0900N,144-41.4700E,341,29.811,34.3207
8817,2010/3/18,23:20:00,00-28.3000N,144-41.4000E,341,29.8,34.3165
8818,2010/3/18,23:21:00,00-28.5200N,144-41.3300E,341,29.791,34.3145
8819,2010/3/18,23:22:00,00-28.7300N,144-41.2600E,342,29.79,34.3138
8820,2010/3/18,23:23:00,00-28.9400N,144-41.1900E,341,29.788,34.3118
8821,2010/3/18,23:24:00,00-29.1600N,144-41.1200E,342,29.792,34.3123
8822,2010/3/18,23:25:00,00-29.3800N,144-41.0600E,342,29.796,34.3131
8823,2010/3/18,23:26:00,00-29.5900N,144-40.9900E,343,29.792,34.3139
8824,2010/3/18,23:27:00,00-29.8100N,144-40.9300E,343,29.796,34.3141
8825,2010/3/18,23:28:00,00-30.0300N,144-40.8600E,342,29.795,34.316
8826,2010/3/18,23:29:00,00-30.2400N,144-40.7900E,342,29.792,34.3163
8827,2010/3/18,23:30:00,00-30.4500N,144-40.7300E,342,29.788,34.3167
8828,2010/3/18,23:31:00,00-30.6700N,144-40.6600E,342,29.79,34.3164
8829,2010/3/18,23:32:00,00-30.8900N,144-40.5900E,342,29.786,34.3024
8830,2010/3/18,23:33:00,00-31.1000N,144-40.5300E,343,29.778,34.3008
8831,2010/3/18,23:34:00,00-31.3200N,144-40.4600E,342,29.779,34.299
8832,2010/3/18,23:35:00,00-31.5300N,144-40.3900E,342,29.782,34.3009
8833,2010/3/18,23:36:00,00-31.7600N,144-40.3200E,341,29.784,34.3031
8834,2010/3/18,23:37:00,00-31.9800N,144-40.2400E,341,29.786,34.3044
8835,2010/3/18,23:38:00,00-32.2000N,144-40.1700E,342,29.783,34.3047
8836,2010/3/18,23:39:00,00-32.4200N,144-40.1100E,344,29.779,34.306
8837,2010/3/18,23:40:00,00-32.6400N,144-40.0600E,345,29.779,34.3082
8838,2010/3/18,23:41:00,00-32.8500N,144-40.0000E,345,29.78,34.3086
8839,2010/3/18,23:42:00,00-33.0800N,144-39.9400E,345,29.783,34.31
8840,2010/3/18,23:43:00,00-33.3000N,144-39.8900E,345,29.787,34.3115
8841,2010/3/18,23:44:00,00-33.5200N,144-39.8300E,344,29.786,34.3119
8842,2010/3/18,23:45:00,00-33.7300N,144-39.7700E,345,29.784,34.3132
8843,2010/3/18,23:46:00,00-33.9500N,144-39.7200E,345,29.791,34.3128
8844,2010/3/18,23:47:00,00-34.1800N,144-39.6600E,344,29.794,34.3121
8845,2010/3/18,23:48:00,00-34.3900N,144-39.6000E,344,29.791,34.3102
8846,2010/3/18,23:49:00,00-34.6100N,144-39.5400E,343,29.789,34.3086
8847,2010/3/18,23:50:00,00-34.8400N,144-39.4800E,344,29.792,34.3092
8848,2010/3/18,23:51:00,00-35.0500N,144-39.4300E,346,29.787,34.3092
8849,2010/3/18,23:52:00,00-35.2800N,144-39.3700E,346,29.793,34.3099
8850,2010/3/18,23:53:00,00-35.5000N,144-39.3200E,346,29.793,34.3066
8851,2010/3/18,23:54:00,00-35.7200N,144-39.2600E,345,29.794,34.3063
8852,2010/3/18,23:55:00,00-35.9300N,144-39.2100E,344,29.796,34.3054
8853,2010/3/18,23:56:00,00-36.1600N,144-39.1500E,346,29.792,34.305
8854,2010/3/18,23:57:00,00-36.4000N,144-39.0900E,345,29.792,34.305
8855,2010/3/18,23:58:00,00-36.6200N,144-39.0400E,345,29.793,34.3039
8856,2010/3/18,23:59:00,00-36.8400N,144-38.9800E,345,29.791,34.3041
8857,2010/3/19,0:00:00,00-37.0600N,144-38.9100E,345,29.789,34.3046
8860,2010/3/19,0:01:00,00-37.3200N,144-38.8500E,345,29.787,34.3045
8861,2010/3/19,0:02:00,00-37.5400N,144-38.7900E,345,29.787,34.3036
8862,2010/3/19,0:03:00,00-37.7700N,144-38.7300E,344,29.787,34.3023
8863,2010/3/19,0:04:00,00-37.9900N,144-38.6700E,344,29.793,34.2997
8864,2010/3/19,0:05:00,00-38.2100N,144-38.6100E,344,29.793,34.2985
8865,2010/3/19,0:06:00,00-38.4300N,144-38.5600E,346,29.791,34.2991
8866,2010/3/19,0:07:00,00-38.6600N,144-38.5000E,346,29.792,34.3004
8867,2010/3/19,0:08:00,00-38.8800N,144-38.4500E,346,29.797,34.3021
8868,2010/3/19,0:09:00,00-39.1100N,144-38.3900E,345,29.807,34.3038
8869,2010/3/19,0:10:00,00-39.3300N,144-38.3300E,344,29.8,34.3047
8870,2010/3/19,0:11:00,00-39.5600N,144-38.2800E,346,29.802,34.305
8871,2010/3/19,0:12:00,00-39.7800N,144-38.2200E,345,29.803,34.3042
8872,2010/3/19,0:13:00,00-40.0100N,144-38.1600E,345,29.806,34.3052
8873,2010/3/19,0:14:00,00-40.2300N,144-38.1000E,345,29.806,34.3045
8874,2010/3/19,0:15:00,00-40.4600N,144-38.0400E,344,29.815,34.3043
8875,2010/3/19,0:16:00,00-40.6800N,144-37.9800E,344,29.818,34.3049
8876,2010/3/19,0:17:00,00-40.9100N,144-37.9200E,345,29.821,34.3034
8877,2010/3/19,0:18:00,00-41.1300N,144-37.8700E,346,29.836,34.3007
8878,2010/3/19,0:19:00,00-41.3500N,144-37.8100E,345,29.846,34.2989
8879,2010/3/19,0:20:00,00-41.5800N,144-37.7500E,345,29.847,34.2849
8880,2010/3/19,0:21:00,00-41.8000N,144-37.6900E,345,29.857,34.2621
8881,2010/3/19,0:22:00,00-42.0400N,144-37.6300E,344,29.857,34.2658
8882,2010/3/19,0:23:00,00-42.2700N,144-37.5700E,345,29.854,34.2705
8883,2010/3/19,0:24:00,00-42.4900N,144-37.5100E,344,29.864,34.2731
8884,2010/3/19,0:25:00,00-42.7100N,144-37.4500E,345,29.863,34.2762
8885,2010/3/19,0:26:00,00-42.9400N,144-37.4000E,345,29.869,34.2768
8886,2010/3/19,0:27:00,00-43.1600N,144-37.3400E,345,29.864,34.2777
8887,2010/3/19,0:28:00,00-43.3900N,144-37.2800E,345,29.856,34.2749
8888,2010/3/19,0:29:00,00-43.6100N,144-37.2200E,345,29.858,34.2709
8889,2010/3/19,0:30:00,00-43.8300N,144-37.1600E,345,29.858,34.2683
8890,2010/3/19,0:31:00,00-44.0600N,144-37.1000E,344,29.857,34.2666
8891,2010/3/19,0:32:00,00-44.2800N,144-37.0400E,344,29.857,34.2707
8892,2010/3/19,0:33:00,00-44.5000N,144-36.9800E,344,29.85,34.269
8893,2010/3/19,0:34:00,00-44.7300N,144-36.9200E,344,29.833,34.2625
8894,2010/3/19,0:35:00,00-44.9500N,144-36.8600E,345,29.842,34.2618
8895,2010/3/19,0:36:00,00-45.1800N,144-36.7900E,344,29.831,34.2682
8896,2010/3/19,0:37:00,00-45.4000N,144-36.7300E,344,29.827,34.2602
8897,2010/3/19,0:38:00,00-45.6300N,144-36.6700E,344,29.825,34.2578
8898,2010/3/19,0:39:00,00-45.8500N,144-36.6100E,344,29.825,34.2649
8899,2010/3/19,0:40:00,00-46.0700N,144-36.5500E,343,29.826,34.268
8900,2010/3/19,0:41:00,00-46.3000N,144-36.4800E,344,29.821,34.2702
8901,2010/3/19,0:42:00,00-46.5100N,144-36.4200E,344,29.822,34.2685
8902,2010/3/19,0:43:00,00-46.7400N,144-36.3600E,344,29.82,34.2662
8903,2010/3/19,0:44:00,00-46.9700N,144-36.3000E,344,29.825,34.2611
8904,2010/3/19,0:45:00,00-47.2000N,144-36.2400E,344,29.813,34.2349
8905,2010/3/19,0:46:00,00-47.4200N,144-36.1800E,345,29.795,34.2297
8906,2010/3/19,0:47:00,00-47.6400N,144-36.1100E,344,29.817,34.2237
8907,2010/3/19,0:48:00,00-47.8600N,144-36.0600E,344,29.805,34.2217
8908,2010/3/19,0:49:00,00-48.0800N,144-35.9900E,343,29.813,34.2266
8909,2010/3/19,0:50:00,00-48.3100N,144-35.9300E,344,29.81,34.2177
8910,2010/3/19,0:51:00,00-48.5300N,144-35.8700E,344,29.81,34.2182
8911,2010/3/19,0:52:00,00-48.7600N,144-35.8100E,345,29.81,34.2216
8912,2010/3/19,0:53:00,00-48.9800N,144-35.7500E,344,29.807,34.2298
8913,2010/3/19,0:54:00,00-49.2100N,144-35.6800E,343,29.802,34.235
8914,2010/3/19,0:55:00,00-49.4300N,144-35.6200E,344,29.803,34.2341
8915,2010/3/19,0:56:00,00-49.6500N,144-35.5600E,343,29.802,34.2364
8916,2010/3/19,0:57:00,00-49.8800N,144-35.4900E,343,29.797,34.2302
8917,2010/3/19,0:58:00,00-50.1000N,144-35.4300E,345,29.8,34.2256
8918,2010/3/19,0:59:00,00-50.3000N,144-35.3700E,344,29.811,34.2229
8919,2010/3/19,1:00:00,00-50.5400N,144-35.3100E,343,29.815,34.2268
8920,2010/3/19,1:01:00,00-50.7700N,144-35.2400E,343,29.818,34.2294
8921,2010/3/19,1:02:00,00-51.0000N,144-35.1800E,343,29.815,34.2299
8922,2010/3/19,1:03:00,00-51.2200N,144-35.1100E,344,29.814,34.2315
8923,2010/3/19,1:04:00,00-51.4400N,144-35.0500E,344,29.808,34.2327
8924,2010/3/19,1:05:00,00-51.6700N,144-34.9900E,344,29.799,34.2329
8925,2010/3/19,1:06:00,00-51.9100N,144-34.9200E,344,29.801,34.2273
8926,2010/3/19,1:07:00,00-52.1300N,144-34.8600E,343,29.804,34.226
8927,2010/3/19,1:08:00,00-52.3600N,144-34.7900E,343,29.801,34.2331
8928,2010/3/19,1:09:00,00-52.5800N,144-34.7300E,343,29.809,34.2361
8929,2010/3/19,1:10:00,00-52.8100N,144-34.6600E,343,29.811,34.2391
8930,2010/3/19,1:11:00,00-53.0300N,144-34.5900E,344,29.811,34.2437
8931,2010/3/19,1:12:00,00-53.2600N,144-34.5300E,344,29.81,34.2454
8932,2010/3/19,1:13:00,00-53.4800N,144-34.4700E,343,29.815,34.2462
8933,2010/3/19,1:14:00,00-53.7000N,144-34.4000E,343,29.821,34.2458
8934,2010/3/19,1:15:00,00-53.9200N,144-34.3400E,344,29.826,34.2488
8935,2010/3/19,1:16:00,00-54.1500N,144-34.2800E,342,29.83,34.2518
8936,2010/3/19,1:17:00,00-54.3700N,144-34.2000E,341,29.838,34.2535
8937,2010/3/19,1:18:00,00-54.5900N,144-34.1300E,340,29.843,34.255
8938,2010/3/19,1:19:00,00-54.8100N,144-34.0500E,342,29.848,34.2579
8939,2010/3/19,1:20:00,00-55.0300N,144-33.9800E,341,29.855,34.2619
8940,2010/3/19,1:21:00,00-55.2500N,144-33.9100E,341,29.863,34.2655
8941,2010/3/19,1:22:00,00-55.4700N,144-33.8300E,341,29.874,34.2676
8942,2010/3/19,1:23:00,00-55.6900N,144-33.7600E,341,29.881,34.2706
8943,2010/3/19,1:24:00,00-55.9100N,144-33.6800E,340,29.876,34.2727
8944,2010/3/19,1:25:00,00-56.1300N,144-33.6100E,340,29.873,34.2763
8945,2010/3/19,1:26:00,00-56.3500N,144-33.5400E,341,29.87,34.2752
8946,2010/3/19,1:27:00,00-56.5700N,144-33.4600E,341,29.87,34.2733
8947,2010/3/19,1:28:00,00-56.8000N,144-33.3800E,341,29.869,34.2727
8948,2010/3/19,1:29:00,00-57.0200N,144-33.3100E,341,29.863,34.2721
8949,2010/3/19,1:30:00,00-57.2400N,144-33.2300E,341,29.86,34.2724
8950,2010/3/19,1:31:00,00-57.4600N,144-33.1600E,341,29.867,34.2738
8951,2010/3/19,1:32:00,00-57.6900N,144-33.0800E,341,29.874,34.2749
8952,2010/3/19,1:33:00,00-57.9100N,144-33.0100E,340,29.883,34.2794
8953,2010/3/19,1:34:00,00-58.1300N,144-32.9300E,339,29.879,34.2827
8954,2010/3/19,1:35:00,00-58.3500N,144-32.8500E,340,29.881,34.2808
8955,2010/3/19,1:36:00,00-58.5700N,144-32.7700E,340,29.882,34.2825
8956,2010/3/19,1:37:00,00-58.7900N,144-32.7000E,342,29.889,34.2825
8957,2010/3/19,1:38:00,00-59.0100N,144-32.6300E,341,29.885,34.2812
8958,2010/3/19,1:39:00,00-59.2300N,144-32.5500E,340,29.885,34.2834
8959,2010/3/19,1:40:00,00-59.4600N,144-32.4700E,340,29.88,34.2833
8960,2010/3/19,1:41:00,00-59.6700N,144-32.4000E,340,29.88,34.2857
8961,2010/3/19,1:42:00,00-59.8900N,144-32.3200E,340,29.886,34.2828
8962,2010/3/19,1:43:00,01-00.1100N,144-32.2500E,341,29.907,34.2857
8963,2010/3/19,1:44:00,01-00.3300N,144-32.1700E,341,29.916,34.2837
8964,2010/3/19,1:45:00,01-00.5500N,144-32.1000E,340,29.922,34.2827
8965,2010/3/19,1:46:00,01-00.7700N,144-32.0200E,340,29.925,34.283
8966,2010/3/19,1:47:00,01-00.9900N,144-31.9400E,339,29.922,34.2827
8967,2010/3/19,1:48:00,01-01.2100N,144-31.8700E,340,29.922,34.2825
8968,2010/3/19,1:49:00,01-01.4300N,144-31.8000E,342,29.923,34.2791
8969,2010/3/19,1:50:00,01-01.6700N,144-31.7300E,345,29.921,34.2796
8970,2010/3/19,1:51:00,01-01.8900N,144-31.6700E,345,29.919,34.2784
8971,2010/3/19,1:52:00,01-02.1200N,144-31.6200E,345,29.922,34.2785
8972,2010/3/19,1:53:00,01-02.3400N,144-31.5600E,345,29.927,34.2802
8973,2010/3/19,1:54:00,01-02.5700N,144-31.5000E,345,29.918,34.2809
8974,2010/3/19,1:55:00,01-02.7900N,144-31.4400E,344,29.896,34.2806
8975,2010/3/19,1:56:00,01-03.0200N,144-31.3700E,344,29.888,34.2802
8976,2010/3/19,1:57:00,01-03.2400N,144-31.3200E,344,29.882,34.2803
8977,2010/3/19,1:58:00,01-03.4700N,144-31.2600E,345,29.883,34.2793
8978,2010/3/19,1:59:00,01-03.6900N,144-31.2000E,345,29.885,34.277
8979,2010/3/19,2:00:00,01-03.9200N,144-31.1400E,345,29.892,34.2784
8980,2010/3/19,2:01:00,01-04.1500N,144-31.0800E,345,29.889,34.2787
8981,2010/3/19,2:02:00,01-04.3800N,144-31.0300E,345,29.887,34.2753
8982,2010/3/19,2:03:00,01-04.6000N,144-30.9700E,346,29.888,34.2759
8983,2010/3/19,2:04:00,01-04.8200N,144-30.9200E,345,29.889,34.2766
8984,2010/3/19,2:05:00,01-05.0500N,144-30.8600E,345,29.885,34.277
8985,2010/3/19,2:06:00,01-05.2800N,144-30.8000E,345,29.89,34.2763
8986,2010/3/19,2:07:00,01-05.5100N,144-30.7400E,345,29.888,34.2768
8987,2010/3/19,2:08:00,01-05.7300N,144-30.6800E,345,29.894,34.2772
8988,2010/3/19,2:09:00,01-05.9600N,144-30.6300E,346,29.891,34.2795
8989,2010/3/19,2:10:00,01-06.1900N,144-30.5700E,346,29.893,34.2813
8990,2010/3/19,2:11:00,01-06.4300N,144-30.5100E,346,29.891,34.2815
8991,2010/3/19,2:12:00,01-06.6600N,144-30.4600E,346,29.898,34.2829
8992,2010/3/19,2:13:00,01-06.8900N,144-30.4000E,345,29.89,34.2837
8993,2010/3/19,2:14:00,01-07.1100N,144-30.3400E,345,29.891,34.2827
8994,2010/3/19,2:15:00,01-07.3400N,144-30.2800E,344,29.886,34.2802
8995,2010/3/19,2:16:00,01-07.5700N,144-30.2200E,345,29.886,34.2786
8996,2010/3/19,2:17:00,01-07.8000N,144-30.1700E,346,29.882,34.2774
8997,2010/3/19,2:18:00,01-08.0200N,144-30.1100E,346,29.877,34.2793
8998,2010/3/19,2:19:00,01-08.2500N,144-30.0600E,346,29.881,34.2813
8999,2010/3/19,2:20:00,01-08.4800N,144-30.0000E,346,29.87,34.2827
9000,2010/3/19,2:21:00,01-08.7000N,144-29.9500E,346,29.87,34.2827
9001,2010/3/19,2:22:00,01-08.9300N,144-29.8900E,346,29.869,34.2816
9002,2010/3/19,2:23:00,01-09.1600N,144-29.8400E,346,29.88,34.2826
9003,2010/3/19,2:24:00,01-09.3800N,144-29.7800E,346,29.875,34.2834
9004,2010/3/19,2:25:00,01-09.6100N,144-29.7200E,345,29.89,34.2839
9005,2010/3/19,2:26:00,01-09.8400N,144-29.6700E,346,29.89,34.2851
9006,2010/3/19,2:27:00,01-10.0600N,144-29.6200E,346,29.879,34.2874
9007,2010/3/19,2:28:00,01-10.2900N,144-29.5600E,346,29.895,34.2875
9008,2010/3/19,2:29:00,01-10.5200N,144-29.5100E,345,29.89,34.2881
9009,2010/3/19,2:30:00,01-10.7400N,144-29.4500E,346,29.881,34.2866
9010,2010/3/19,2:31:00,01-10.9700N,144-29.4000E,346,29.882,34.2876
9011,2010/3/19,2:32:00,01-11.2000N,144-29.3400E,346,29.877,34.2881
9012,2010/3/19,2:33:00,01-11.4400N,144-29.2800E,346,29.87,34.2908
9013,2010/3/19,2:34:00,01-11.6700N,144-29.2300E,346,29.88,34.2913
9014,2010/3/19,2:35:00,01-11.9000N,144-29.1800E,346,29.888,34.2931
9015,2010/3/19,2:36:00,01-12.1300N,144-29.1200E,346,29.877,34.2978
9016,2010/3/19,2:37:00,01-12.3500N,144-29.0700E,346,29.88,34.2989
9017,2010/3/19,2:38:00,01-12.5800N,144-29.0100E,346,29.871,34.2995
9018,2010/3/19,2:39:00,01-12.8200N,144-28.9600E,346,29.89,34.3012
9019,2010/3/19,2:40:00,01-13.0500N,144-28.9000E,347,29.864,34.3024
9020,2010/3/19,2:41:00,01-13.2800N,144-28.8500E,347,29.864,34.2997
9021,2010/3/19,2:42:00,01-13.5100N,144-28.8000E,346,29.859,34.299
9022,2010/3/19,2:43:00,01-13.7400N,144-28.7500E,346,29.855,34.2997
9023,2010/3/19,2:44:00,01-13.9700N,144-28.7000E,346,29.87,34.2991
9024,2010/3/19,2:45:00,01-14.2000N,144-28.6500E,347,29.884,34.2984
9025,2010/3/19,2:46:00,01-14.4300N,144-28.6000E,348,29.865,34.2997
9026,2010/3/19,2:47:00,01-14.6600N,144-28.5500E,348,29.848,34.2979
9027,2010/3/19,2:48:00,01-14.8900N,144-28.5000E,346,29.846,34.2967
9028,2010/3/19,2:49:00,01-15.1300N,144-28.4400E,346,29.851,34.2959
9029,2010/3/19,2:50:00,01-15.3600N,144-28.3900E,347,29.864,34.2959
9030,2010/3/19,2:51:00,01-15.5800N,144-28.3400E,347,29.882,34.295
9031,2010/3/19,2:52:00,01-15.8100N,144-28.2900E,348,29.882,34.2984
9032,2010/3/19,2:53:00,01-16.0500N,144-28.2300E,347,29.871,34.3013
9033,2010/3/19,2:54:00,01-16.2800N,144-28.1800E,347,29.848,34.2991
9034,2010/3/19,2:55:00,01-16.5300N,144-28.1300E,347,29.843,34.2891
9035,2010/3/19,2:56:00,01-16.7700N,144-28.0800E,347,29.848,34.2833
9036,2010/3/19,2:57:00,01-17.0000N,144-28.0300E,347,29.848,34.2829